Location: Recife
(8.0585°S, 34.8848°W)
Time: 06:24:01
(UTC-03:00)

Vanguard 3 - Pass Details

Date: 16 April 2026
Orbit: 507 x 3205 km, 33.4° (Epoch: 13 May)

Event Time Altitude Azimuth Distance (km) Brightness Sun altitude
Rises 06:51:12 0° 306° (NW) 4,279 10.5 20.8°
Reaches altitude 10° 06:53:34 10° 307° (NW) 3,583 10.2 21.4°
Maximum altitude 07:03:28 88° 35° (NE) 2,143 9.7 23.7°
Drops below altitude 10° 07:20:43 10° 124° (SE) 5,859 12.2 27.9°
Sets 07:25:47 0° 124° (SE) 7,060 12.5 29.1°
